Home   Weather   Chișinău   Past weeks

Flag for Moldova Past Weather in Chișinău, Moldova — Yesterday and Last 2 Weeks

Now
28 °F

Sunny.


Feels Like: 20 °F
Forecast: 15 / 36 °F
Wind: 9 mph from North

Location: Chisinau International Airport

Current Time: Dec 7, 2016 at 2:33:29 pm

Latest Report: Dec 7, 2016 at 2:00 pm


Visibility: 10 mi

Pressure: 30.66 "Hg

Humidity: 43%

Dew Point: 9 °F

Location of ChișinăuLocation

Past Weather in Chișinău — Graph

°F

Chișinău Temperature Yesterday

Maximum temperature yesterday: 43 °F (at 1:00 pm)
Minimum temperature yesterday: 23 °F (at 7:00 am)
Average temperature yesterday: 33 °F

High & Low Weather Summary for the Past Weeks

 TemperatureHumidityPressure
High43 °F (Nov 26, 1:30 pm)100% (Nov 23, 6:00 pm)30.66 "Hg (Nov 23, 6:00 pm)
Low18 °F (Dec 5, 6:30 am)39% (Dec 6, 1:30 pm)29.36 "Hg (Dec 2, 1:30 pm)
Average32 °F80%30.14 "Hg
* Reported Nov 22 1:00 pm — Dec 7 1:30 pm, Chișinău, Weather by CustomWeather, © 2016

Note: Actual official high and low records may vary slightly from our data, if they occured in-between our weather recording intervals... More about our weather records

Advertising

Chișinău Weather History for the Previous 24 Hours

Scroll right to see more
 ConditionsComfort  
Time TempWeatherWind HumidityBarometerVisibility
1:30 pm
Wed, Dec 7
28 °FPassing clouds.10 mph47%30.66 "HgN/A
1:00 pm28 °FPassing clouds.12 mph51%30.63 "HgN/A
12:30 pm28 °FPassing clouds.12 mph55%30.63 "HgN/A
12:00 pm27 °FPassing clouds.12 mph64%30.63 "HgN/A
11:30 am27 °FPassing clouds.12 mph64%30.63 "HgN/A
11:00 am27 °FPassing clouds.10 mph64%30.63 "HgN/A
10:30 am27 °FPartly sunny.12 mph64%30.60 "HgN/A
10:00 am27 °FPartly sunny.14 mph69%30.60 "HgN/A
9:30 am27 °FPartly sunny.12 mph74%30.57 "HgN/A
9:00 am27 °FLight snow. Overcast.12 mph80%30.54 "Hg4 mi
8:30 am28 °FLight snow. Overcast.15 mph74%30.51 "Hg6 mi
8:00 am30 °FLight snow. Overcast.10 mph75%30.48 "HgN/A
7:30 am30 °FOvercast.14 mph80%30.48 "HgN/A
7:00 am32 °FLight snow. Mostly cloudy.10 mph75%30.45 "HgN/A
6:30 am30 °FPassing clouds.9 mph80%30.42 "HgN/A
6:00 am30 °FPassing clouds.8 mph80%30.42 "HgN/A
5:30 am32 °FPassing clouds.10 mph75%30.39 "HgN/A
5:00 am32 °FPassing clouds.7 mph80%30.39 "HgN/A
4:30 am32 °FPassing clouds.10 mph80%30.36 "HgN/A
4:00 am32 °FPassing clouds.9 mph80%30.36 "HgN/A
3:30 am32 °FPassing clouds.10 mph80%30.36 "HgN/A
3:00 am34 °FLight snow. Passing clouds.13 mph75%30.33 "HgN/A
2:30 am32 °FPassing clouds.12 mph80%30.33 "HgN/A
2:00 am32 °FPassing clouds.9 mph80%30.30 "HgN/A
1:30 am32 °FPassing clouds.8 mph80%30.30 "HgN/A
1:00 am32 °FPassing clouds.12 mph80%30.30 "HgN/A
12:30 am32 °FPassing clouds.9 mph80%30.27 "HgN/A
12:00 am32 °FPartly cloudy.10 mph80%30.27 "HgN/A
11:30 pm
Tue, Dec 6
34 °FPartly cloudy.12 mph75%30.27 "HgN/A
11:00 pm34 °FOvercast.14 mph75%30.27 "HgN/A
10:30 pm34 °FLight rain. Overcast.15 mph81%30.24 "HgN/A
10:00 pm34 °FLight rain. Overcast.14 mph81%30.24 "HgN/A
9:30 pm34 °FPassing clouds.13 mph75%30.24 "HgN/A
9:00 pm34 °FPartly cloudy.13 mph75%30.21 "HgN/A
8:00 pm34 °FLight rain. Passing clouds.12 mph70%30.21 "HgN/A
7:30 pm36 °FPassing clouds.10 mph65%30.18 "HgN/A
7:00 pm36 °FPassing clouds.14 mph60%30.18 "HgN/A
6:30 pm36 °FPassing clouds.12 mph56%30.18 "HgN/A
6:00 pm37 °FPassing clouds.10 mph52%30.15 "HgN/A
5:30 pm37 °FPassing clouds.13 mph48%30.15 "HgN/A
5:00 pm37 °FClear.8 mph45%30.15 "Hg10 mi
4:30 pm37 °FClear.12 mph48%30.12 "Hg10 mi
4:00 pm39 °FSunny.7 mph45%30.12 "Hg10 mi
3:30 pm41 °FPassing clouds.6 mph39%30.12 "HgN/A
3:00 pm41 °FSunny.7 mph39%30.12 "Hg10 mi
2:30 pm43 °FSunny.6 mph39%30.12 "Hg10 mi
2:00 pm41 °FSunny.5 mph39%30.12 "Hg10 mi
Weather by CustomWeather, © 2016

See weather overviewHow to use our weather pages